CZ-6A DEB

Satellite information

Favourite Embed

Satellite Type and Status

DEBRISIN ORBIT

Key statistics

Satellite CZ-6A DEB at a glance.

Uptime

1024

Days in orbit

Revolutions

≈ 14.1

Per day

Orbit

SSO

Sun Synchronous Orbit

Inclination

98.8

Latest

Satellite identification and parameters

Extended collection of information and parameters for CZ-6A DEB.

Object identification

Identified? True

Debris? True

Object name: CZ-6A DEB

International designator: 2022-151AFY

Object number (NORAD): 56648

Object ID (CCSDS): 56648

Country: PEOPLES REPUBLIC OF CHINA (PRC)

Current information (Y/N): Y

RCS size: SMALL

Orbital parameters

Period: 102.152 minutes

Inclination: 98.8196 deg

SMA: 7238.647 km

Apoapsis: 899.296 km

Periapsis: 821.728 km

RAAN: 238.4774 deg

Eccentricy: 0.00535789

Argument of periapsis: 95.2585 deg

Mean anomaly: 265.4702 deg

Mean motion: 14.09667334 rev/day

Mean motion (dot): 0.00000521 rev/day2

B* drag term: 0.00031747292 1/REarth

Two-line elements (TLE)

Creation date: Aug. 30, 2025, 3:38 a.m.

Reference frame: TEME

Reference center: EARTH

Epoch: Aug. 29, 2025, 5:28 p.m. UTC

TLE line 0: 0 CZ-6A DEB

TLE line 1: 1 56648U 22151AFY 25241.72832910 .00000521 00000-0 31747-3 0 9999

TLE line 2: 2 56648 98.8196 238.4774 0053579 95.2585 265.4702 14.09667334121104

Live tracking on map

Real-time ground track for satellite CZ-6A DEB.

In-orbit conjunctions

A list of the most updated potential collisions computed for object CZ-6A DEB.

Target Orbit TCA Probability of collision Miss distance Type
SL-3 R/B LEO 2025-04-13 02:02:00 0.0002059525 513.0 (m) ROCKET BODY
CZ-6A DEB LEO 2024-12-03 21:36:31 0.0001343704 453.0 (m) DEBRIS

Associated space launch

Chinese satellite reported for atmospheric/ocean/environmental/spatial parameter research purposes, details TBD.

CZ-6A DEB was lifted into orbit during the mission ‘Long March 6A | Yunhai 3’, on board a Long March 6A space rocket.

The launch took place on Nov. 11, 2022, 10:52 p.m. from Launch Complex 9A.

For more information about the launch, click the button.

Launch to space Long March 6A | Yunhai 3
Long March 6A | Yunhai 3

Agency: N/A

Status: Launch Successful

Launch date: Nov. 11, 2022, 10:52 p.m. UTC

Rocket: Long March 6A

Launch pad: Launch Complex 9A

Location: Taiyuan Satellite Launch Center, People's Republic of China

...

Latest news about this satellite

There are no fresh news available about this satellite. Check back as we update our databases every day.


Newsletter sign-up

Weekly statistics, charts and insights to help you stay on top of the space industry.